{"data":{"norad_id":65190,"epoch":"2026-05-25T04:00:03.998880Z","epoch_age_seconds":57710,"freshness":"FRESH","line1":"1 65190U 25175S   26145.16671295 -.00006159  00000+0 -42300-3 0  9990","line2":"2 65190  97.4478  17.6874 0002469  76.4179 141.9362 15.05664770  5721","mean_motion":15.0566477,"eccentricity":0.0002469,"inclination_deg":97.4478,"raan_deg":17.6874,"arg_perigee_deg":76.4179,"mean_anomaly_deg":141.9362,"bstar":-0.000423,"rev_number":572,"period_min":95.638818725897,"perigee_km":547.75542375539,"apogee_km":551.17627404218,"semimajor_km":6927.6028488988,"source":"CELESTRAK","updated_at":"2026-05-25T13:38:20.715660Z"}}